Location: Azul
(36.7830°S, 59.8500°W)
Time: 00:53:17
(UTC-03:00)

ISS - Pass Details

Date: 20 June 2017
Orbit: 401 x 408 km, 51.6° (Epoch: 29 June)

Event Time Altitude Azimuth Distance (km) Brightness Sun altitude
Exits shadow 07:27:22 - 278° (W) 1,551 -1.4 -8.9°
Reaches altitude 10° 07:27:51 10° 285° (WNW) 1,468 -1.5 -8.8°
Maximum altitude 07:29:03 12° 307° (NW) 1,371 -1.4 -8.5°
Drops below altitude 10° 07:30:15 10° 329° (NNW) 1,460 -1.1 -8.3°
Sets 07:33:26 0° 3° (N) 2,309 0.4 -7.7°
